Zurück zum Katalog

FENGYUN 1C DEB

AktivSSO
NORAD 31056·DEBRIS·🇨🇳 China

Gestartet May 10, 1999 von Taiyuan Satellite Launch Center

Loading…

Nächste Überflüge (nächste 24 Stunden)

TLE

AktuellSource: Space-Track

Epoche: Sep 14, 2026, 10:26 UTC

1 31056U 99025BFA 26257.43522190  .00000358  00000-0  20817-3 0  9995
2 31056  98.6958 237.3838 0024473 273.8493 238.6543 14.14631044  7110

Verfolge FENGYUN 1C DEB in Echtzeit mit AllMySat

Download on the App Store